UTMN 2 (RS27S)

Last updated on Sun Jun 21 2026 00:03:20 GMT+0000 (Coordinated Universal Time)

1 57203U 23091AP 26171.45706625 .00010973 00000+0 35586-3 0 9993 2 57203 97.5082 238.7236 0009091 74.0952 286.1291 15.32118609165048
UTC large
Height (km)
Speed (km/s)
/
Latitude / Longitude
Inclination (degrees)
Orbital Period (minutes)
Azimuth
Elevation
Range (km)
Doppler Factor

Next 0 passes for location: London (51.5072 / 0.1276)

No passes found over London.
UTMN 2 (RS27S)